Wind_Speed
15 15 15 14 13 12 11 10 10 12 12 11 11 10 10 9 8 8 9 10 11 11 11 12 12 12 10 10 9 8 8 7 7 8 7 7 7 7 7 6 5 5 5 5 4 4 4 5 6 7 8 8 8 9 9 9 9 9 9 10 10 11 12 13 13 14 15 16 17 17 18 18 19 20 21 22 22 23 23 22 21 21 20 21 21 19 18 18
15 14 14 14 13 12 11 11 10 11 12 11 10 9 9 9 8 7 7 9 10 10 10 12 12 11 10 9 8 8 7 6 6 7 7 6 6 6 5 5 5 4 5 5 5 4 5 6 6 7 7 7 8 9 9 9 8 9 10 10 10 12 12 13 14 15 15 16 17 17 18 18 20 21 22 23 23 24 24 21 21 22 20 21 21 19 18 18
14 13 13 12 12 11 10 10 10 10 10 10 9 8 9 9 8 7 7 8 9 8 9 11 11 11 9 8 7 7 6 5 4 5 6 4 4 4 4 4 4 4 5 4 4 5 6 7 6 6 6 6 7 8 10 10 9 10 11 11 11 12 13 14 14 15 15 16 17 17 18 18 20 21 23 23 24 24 22 20 23 22 20 21 20 18 17 17
12 13 12 11 11 10 9 9 9 9 9 9 9 8 8 8 8 7 7 7 8 8 9 11 11 10 8 7 6 5 4 4 3 4 4 3 3 2 3 3 4 4 4 4 5 5 6 6 6 6 6 6 8 10 11 11 11 11 11 12 13 13 14 14 14 14 15 16 17 17 18 19 19 22 23 24 25 23 20 21 24 22 21 22 19 16 16 16
11 12 11 10 9 9 9 8 7 7 8 7 7 7 7 7 7 6 6 7 8 9 9 10 10 9 8 6 5 4 4 3 2 2 2 2 1 1 2 3 3 4 3 4 4 5 5 5 6 6 6 7 9 11 12 12 12 13 13 13 14 14 14 14 14 14 15 16 17 18 19 19 20 22 22 24 23 20 20 23 24 23 21 21 17 15 15 16
9 10 10 9 8 8 8 7 5 5 6 6 5 5 6 6 6 6 6 7 8 8 9 9 9 9 7 6 4 4 2 2 1 2 2 1 1 1 1 1 2 3 3 4 5 5 5 5 6 6 7 8 10 11 12 13 13 13 14 14 15 15 14 14 14 14 15 16 17 19 19 19 20 22 22 22 19 18 23 24 23 21 19 18 15 15 15 15
4 7 8 7 6 5 6 5 3 3 4 5 4 3 4 5 4 5 6 7 8 8 8 8 8 7 5 4 3 2 1 1 2 1 1 1 1 1 0 1 2 2 3 4 5 5 5 5 5 6 7 9 11 12 12 13 13 13 13 14 15 15 15 15 15 16 16 17 18 19 20 20 20 22 23 21 18 22 24 22 20 18 17 16 15 15 14 15
3 1 6 6 4 3 5 4 2 2 3 4 4 2 3 4 4 5 6 7 7 6 6 6 6 5 4 4 2 2 2 3 2 1 1 1 0 0 1 1 2 2 3 4 5 6 6 6 6 7 9 10 11 12 13 13 12 12 13 14 14 15 16 16 16 17 18 18 19 20 22 22 22 23 23 20 20 22 21 18 18 18 17 16 15 15 14 15
8 4 1 4 2 2 5 4 1 2 2 3 2 0 2 3 4 6 7 7 6 6 6 6 6 5 4 3 2 3 3 2 2 1 1 1 1 1 1 2 2 3 4 5 6 7 7 7 7 8 10 10 10 11 12 12 12 12 14 14 14 15 17 17 17 18 19 19 20 22 24 24 24 24 20 18 20 19 17 17 18 18 17 16 16 16 14 16
11 8 3 2 1 1 4 4 2 3 2 2 1 2 2 4 5 7 8 7 6 7 7 6 5 5 4 3 3 3 3 3 2 1 1 1 1 2 2 2 3 4 5 6 7 7 7 7 7 8 10 9 10 12 12 11 12 13 14 14 14 16 17 18 18 19 20 20 21 22 25 26 23 19 17 17 19 18 17 17 17 18 17 17 17 15 14 16
12 9 5 2 2 3 4 4 2 3 2 1 2 4 4 4 6 8 8 7 7 8 7 5 5 4 4 3 3 3 3 3 2 1 1 1 1 2 2 3 4 5 6 6 7 7 8 7 7 9 9 9 10 12 11 11 13 14 14 15 15 16 17 18 18 19 20 21 21 22 26 25 18 16 17 18 19 19 18 17 18 19 17 17 16 14 14 16
9 8 6 3 4 4 3 3 2 2 1 1 3 4 5 5 6 9 9 8 8 8 6 5 5 4 4 4 4 3 3 3 2 1 1 1 2 2 3 4 5 5 6 6 7 7 7 7 8 9 9 10 11 12 11 11 14 14 14 15 16 16 17 17 18 19 21 21 22 23 26 24 18 19 20 18 19 20 18 17 18 19 18 17 14 13 14 16
6 7 5 3 4 4 4 3 1 0 1 2 3 4 5 5 6 9 10 9 9 8 7 5 4 4 5 5 4 4 3 3 1 0 1 2 2 3 4 4 5 5 6 7 7 7 7 7 8 9 9 10 11 11 11 12 14 14 15 15 16 17 17 17 18 19 21 21 22 22 25 25 22 22 21 17 19 19 18 18 19 18 17 15 12 12 14 16
4 5 3 3 4 4 5 4 1 0 2 3 4 5 5 6 6 8 9 9 9 8 7 6 5 5 6 5 4 4 3 2 0 1 2 2 3 4 4 5 5 6 6 7 7 7 8 8 8 9 9 10 11 11 12 13 14 14 15 15 16 17 17 19 19 20 21 21 22 22 24 26 24 23 22 19 19 18 18 19 18 16 15 12 11 13 13 14
5 5 2 4 5 5 5 4 2 1 2 4 5 6 6 7 7 8 9 9 9 8 7 6 6 6 6 5 4 3 2 1 0 2 3 3 4 5 5 5 6 6 6 7 8 7 8 8 8 9 9 10 11 12 13 14 14 15 14 15 19 19 19 20 19 20 21 21 23 22 24 26 24 22 22 20 18 18 19 18 15 13 11 10 11 12 13 13
6 4 3 4 4 5 6 5 3 2 3 5 6 7 8 8 8 9 9 9 8 7 6 5 6 6 5 5 4 3 1 1 2 2 3 4 5 5 6 6 7 7 7 8 8 8 8 8 8 9 10 11 12 13 14 14 14 16 16 17 21 21 21 22 21 21 21 22 24 23 25 27 24 23 20 18 19 20 19 15 12 10 8 8 10 11 11 12
4 2 3 4 3 4 5 4 3 3 4 5 6 7 8 9 9 9 10 10 9 7 6 4 5 6 5 4 4 3 2 2 2 3 4 5 6 6 6 7 7 7 8 8 8 9 9 9 9 10 11 12 13 14 14 12 13 17 19 20 22 23 23 23 23 23 22 24 25 25 28 27 25 22 18 18 19 18 15 11 9 6 6 8 9 9 10 12
4 3 4 4 3 3 3 3 3 4 5 5 6 6 8 9 9 10 11 11 10 8 6 5 6 5 4 4 4 3 2 3 3 4 5 6 7 7 7 7 8 8 8 9 9 10 10 10 10 11 12 13 14 15 13 11 14 17 20 21 22 24 25 23 24 25 24 24 26 28 30 29 27 20 17 18 18 16 13 9 5 3 7 8 8 9 11 12
5 5 5 5 4 3 2 2 3 4 5 5 5 6 7 9 10 10 11 11 10 9 7 6 7 7 5 5 5 4 4 4 5 5 6 7 8 8 9 9 9 9 9 10 10 10 11 12 12 12 13 14 15 16 15 15 16 18 19 21 22 24 24 23 25 26 26 26 28 29 30 32 28 20 17 16 15 15 12 5 5 4 9 8 9 10 11 13
5 5 5 6 5 4 3 3 4 4 5 4 5 5 6 8 9 10 11 11 11 10 9 8 8 8 7 6 6 6 6 6 6 7 8 8 9 9 10 10 10 10 11 11 12 12 12 13 13 13 14 15 16 16 16 17 17 18 20 21 22 24 23 23 26 26 27 30 31 29 30 31 27 22 16 12 13 13 6 5 5 6 9 9 9 10 11 13
6 5 4 4 5 4 3 3 4 4 4 4 5 5 5 7 8 9 9 10 10 10 9 9 8 9 8 7 7 7 8 8 9 9 10 10 11 11 11 11 12 12 12 12 13 13 14 14 14 13 14 16 16 17 18 18 18 19 20 21 22 24 24 24 25 26 29 32 33 32 31 28 25 20 12 10 13 9 5 5 6 7 10 10 10 10 12 15
4 3 2 2 3 3 3 4 5 4 4 5 5 4 5 6 7 8 9 9 9 10 9 9 10 10 10 9 9 10 10 10 11 12 12 12 13 13 13 13 13 13 14 14 14 15 15 15 14 15 16 16 17 18 18 18 19 20 21 21 22 24 25 25 25 27 29 32 35 34 32 29 22 13 8 12 14 7 7 7 6 8 12 11 12 13 14 17
3 2 1 2 3 3 2 4 5 5 4 4 4 4 4 5 5 7 8 8 9 9 9 10 11 11 11 11 11 11 12 13 13 14 14 14 15 15 15 15 15 15 15 15 16 17 16 16 17 17 16 17 18 19 19 20 20 20 21 22 22 23 24 26 28 29 28 30 32 32 34 28 13 6 8 13 13 9 9 9 8 9 12 12 13 14 15 17
3 3 2 3 3 3 2 2 4 4 3 3 4 3 3 4 5 6 7 8 9 10 10 11 12 12 12 12 13 14 15 15 15 16 16 17 17 17 17 17 17 16 16 17 17 18 18 18 18 17 17 18 19 20 20 20 20 21 21 22 22 22 24 27 30 32 30 27 26 29 30 15 0 6 13 12 13 11 9 8 9 11 13 13 13 13 16 18
3 2 3 3 2 2 1 1 2 3 2 2 3 2 3 4 5 6 7 8 9 10 11 11 12 13 13 14 14 15 16 16 16 16 16 16 17 17 17 18 18 18 18 19 19 19 20 19 18 18 19 20 20 21 21 21 21 21 21 22 22 23 26 27 30 34 29 21 22 25 19 2 3 14 14 10 14 11 8 7 9 12 15 14 13 14 17 20
2 2 2 1 1 1 0 0 1 1 1 2 2 2 2 3 5 5 7 8 8 9 10 10 11 11 12 13 13 15 15 14 14 14 16 17 17 18 18 18 19 20 21 21 21 21 19 19 19 20 21 21 21 21 22 22 21 21 22 23 23 24 26 28 31 30 21 17 22 22 10 7 16 20 13 14 17 10 6 6 10 15 16 14 15 17 20 23
2 2 1 1 1 1 1 0 0 1 1 1 2 2 3 4 5 5 6 6 6 7 8 7 8 9 10 12 13 15 14 14 15 17 18 19 19 19 19 20 21 22 22 22 21 21 21 22 22 21 22 22 22 22 22 21 20 20 22 23 24 25 25 28 30 26 21 21 22 19 11 10 17 19 19 20 15 8 6 6 11 16 16 15 16 18 21 25
3 2 2 2 1 1 1 0 1 1 2 3 2 3 4 4 5 6 5 2 3 6 6 6 7 8 9 10 11 13 13 14 15 16 18 19 20 21 21 22 23 24 24 23 24 25 24 23 23 23 23 23 22 22 21 20 19 20 23 25 25 24 26 29 26 22 21 17 11 12 10 7 12 17 22 17 7 4 5 7 12 14 14 15 16 18 21 23
3 3 3 2 1 1 2 1 2 3 4 4 5 5 5 6 6 6 4 2 3 5 5 6 7 7 9 11 13 15 15 15 16 17 19 20 21 21 23 24 25 26 26 25 27 27 25 23 23 22 22 22 21 21 21 19 18 20 23 25 24 25 27 25 21 19 15 8 6 9 6 3 11 17 13 6 3 5 6 7 11 12 12 14 16 19 21 23
4 4 3 2 2 3 2 2 2 3 4 5 6 7 7 7 6 4 2 2 4 7 6 6 7 9 12 15 17 18 18 18 19 20 20 21 22 22 23 24 24 25 25 25 26 25 24 22 21 21 22 22 21 20 19 16 18 21 23 23 23 25 24 20 16 12 6 4 4 7 5 2 8 12 7 3 7 8 9 9 12 11 12 14 18 23 25 26
3 4 3 2 3 4 2 2 2 2 4 5 6 7 7 7 6 3 1 4 7 6 5 5 9 14 17 19 21 21 21 21 21 21 21 21 20 20 21 21 22 24 24 23 22 21 20 20 21 23 22 21 20 18 15 16 19 20 19 21 21 19 15 11 8 3 2 3 2 6 8 3 7 12 10 8 9 9 9 9 13 12 13 16 21 27 29 29
3 3 4 4 4 4 3 1 1 3 5 6 8 9 9 7 5 3 3 6 5 3 5 10 15 18 20 22 24 23 22 20 19 19 18 18 18 19 20 19 20 21 19 19 20 21 22 22 21 21 19 17 16 14 14 18 19 18 19 19 14 10 7 5 3 2 3 4 3 7 9 9 17 16 12 12 13 13 10 8 9 11 14 17 23 29 30 30
2 3 4 5 5 6 4 1 2 4 6 9 10 11 11 6 3 3 5 6 6 8 12 16 19 21 22 24 24 21 19 18 17 16 17 19 20 19 18 18 19 18 17 20 23 21 18 16 14 14 14 13 12 12 15 18 19 19 18 14 8 5 5 5 4 3 4 4 6 12 13 13 14 10 15 18 17 15 10 5 6 14 20 24 26 29 30 31
2 4 5 6 7 7 5 3 3 6 8 10 11 12 11 7 6 7 8 9 11 13 15 18 20 22 23 22 20 18 17 17 17 18 20 21 20 19 19 19 18 17 18 19 18 13 10 10 11 11 10 10 11 15 18 20 20 18 14 10 8 5 5 5 4 3 5 5 9 14 11 9 9 13 18 15 10 9 5 6 9 21 27 28 28 29 31 34
4 5 7 8 8 8 7 6 6 9 10 12 12 13 11 8 8 9 11 11 12 15 17 19 22 22 22 20 17 16 17 18 20 22 21 20 20 21 20 17 14 14 14 13 12 11 10 10 10 9 10 13 17 20 19 18 16 14 12 11 10 9 8 10 10 11 10 7 8 11 12 18 23 22 12 7 9 8 3 7 19 28 29 29 30 32 35 38
7 7 8 9 9 9 9 9 9 11 11 12 13 13 12 10 10 11 11 11 13 16 18 20 20 20 19 17 16 18 21 21 22 23 21 20 20 19 14 12 11 12 13 13 13 11 9 9 10 12 16 19 19 18 16 16 14 14 15 14 14 13 11 12 12 12 9 6 5 8 14 26 25 15 4 3 11 12 9 20 29 29 29 31 33 37 39 43
8 8 9 9 9 10 10 10 11 11 11 12 13 14 13 11 10 10 11 12 15 17 19 20 19 17 16 17 19 22 23 22 21 21 22 21 18 14 11 11 14 15 15 15 14 12 13 17 18 17 18 17 16 16 19 20 18 17 16 16 15 11 8 7 6 5 5 5 4 7 15 24 18 9 8 11 15 19 23 30 31 29 30 32 36 40 42 46
8 9 9 8 8 9 9 10 10 10 11 12 13 13 11 10 10 10 12 14 16 17 18 17 16 16 17 19 22 23 22 21 20 20 21 18 13 12 13 15 16 15 14 13 13 15 16 17 17 15 14 15 17 20 22 21 19 17 17 17 14 8 5 5 4 5 4 5 4 6 12 22 20 12 10 11 17 26 32 32 30 29 31 36 41 43 45 49
9 10 11 10 8 8 8 9 9 10 11 12 12 10 9 10 11 12 13 14 15 16 17 16 16 17 19 21 22 22 20 20 20 19 18 15 12 14 16 15 13 12 13 14 15 16 16 13 12 14 16 18 20 20 20 20 19 19 19 18 14 11 9 8 8 6 4 5 7 3 6 12 14 11 12 16 22 31 35 32 30 31 35 42 47 49 51 54
9 11 11 10 9 8 8 9 10 11 11 11 10 10 10 12 12 12 13 14 15 16 16 17 17 18 20 20 20 20 20 19 18 18 16 15 16 16 14 11 13 15 16 17 16 17 17 13 12 18 21 21 21 20 20 22 22 21 19 17 15 13 11 10 13 14 10 7 5 4 5 8 12 16 19 20 26 33 34 31 32 36 41 46 51 54 56 58
10 10 9 9 10 10 10 11 11 11 11 11 11 11 11 12 12 12 13 14 15 15 16 17 17 17 18 18 18 19 19 18 18 17 15 15 15 13 12 13 17 18 17 17 17 16 15 14 18 23 25 23 23 22 22 23 23 21 18 15 15 14 11 9 9 11 13 11 8 6 7 14 24 24 20 22 30 33 30 30 35 40 44 50 55 57 58 59
9 9 8 9 10 11 12 12 12 11 11 11 12 12 12 12 12 12 13 13 14 15 16 16 16 17 17 17 17 17 18 19 17 14 13 14 14 14 15 17 18 18 18 18 16 15 15 17 21 24 24 23 23 21 18 16 16 15 15 14 15 15 14 10 8 8 10 14 17 12 8 17 26 21 20 28 32 28 27 32 38 42 49 55 58 59 60 61
8 8 9 10 11 11 11 11 11 11 12 12 12 12 12 12 12 12 13 13 14 15 16 16 16 16 16 16 16 15 17 17 14 12 13 15 15 15 17 18 18 18 18 16 15 15 14 15 19 23 25 23 19 15 11 10 13 15 16 18 18 18 17 15 17 18 14 14 17 13 6 9 15 19 27 31 29 27 30 35 41 49 56 59 61 62 63 63
8 9 9 10 10 10 10 10 11 11 11 11 11 11 11 11 12 12 13 14 15 15 15 15 15 15 15 15 14 15 15 14 13 14 16 15 16 17 17 17 17 17 17 17 17 16 14 14 17 18 18 14 9 7 9 14 20 22 22 24 23 21 20 17 19 19 14 12 13 12 10 11 16 28 34 31 29 32 34 38 48 57 60 62 64 65 64 64
8 9 9 9 10 10 11 11 10 10 10 10 11 11 11 11 12 13 13 14 14 14 14 14 14 14 14 13 14 14 14 14 15 16 17 17 17 17 16 17 18 18 18 18 18 17 17 18 18 14 10 7 6 9 14 20 26 27 26 25 24 22 20 17 15 11 10 10 11 14 21 28 32 36 35 30 31 36 39 44 53 60 63 65 65 64 64 62
8 9 9 10 11 11 10 9 9 10 11 11 11 11 10 11 12 12 13 13 13 13 14 14 13 13 13 14 15 15 15 15 16 17 18 18 17 17 18 19 19 19 18 18 18 17 18 19 19 18 17 16 17 20 22 24 27 25 21 18 17 16 15 14 12 11 12 15 16 17 26 37 41 39 33 31 34 38 42 47 53 61 67 65 63 63 61 53
8 9 10 11 11 9 9 10 11 11 11 11 11 10 10 11 12 12 13 12 12 13 13 13 13 13 14 15 16 16 16 16 17 19 18 18 19 19 20 20 20 19 18 16 15 14 17 21 21 21 22 23 23 24 25 24 21 17 14 12 10 9 8 9 10 11 14 15 17 20 26 34 40 39 31 30 34 39 44 49 58 66 67 64 64 62 54 47
9 10 10 10 10 9 10 10 10 10 10 10 10 10 10 11 11 12 13 12 13 13 13 13 14 15 15 16 17 17 17 18 18 19 19 19 20 20 20 20 20 18 16 15 15 16 17 21 22 22 24 23 22 23 22 16 12 10 8 5 4 5 7 9 11 14 17 16 21 29 31 32 36 35 31 30 33 40 49 57 65 68 66 66 64 56 48 47
10 9 9 9 9 9 9 9 8 9 9 10 10 10 10 11 11 12 13 13 14 13 13 14 14 15 15 16 17 17 18 18 19 19 20 20 20 20 21 20 18 18 18 18 19 18 17 20 22 23 24 24 23 21 15 11 12 10 4 0 5 8 9 12 13 17 22 25 29 36 37 36 33 29 32 36 38 46 55 63 67 66 65 64 57 49 48 51
8 8 7 7 7 7 7 8 8 9 9 9 10 10 10 11 12 12 13 14 14 13 14 14 14 15 15 16 16 16 17 18 18 19 20 20 21 21 21 20 19 20 21 21 21 18 16 19 20 21 24 23 21 17 15 17 16 9 7 2 7 10 13 16 17 21 29 32 33 35 37 37 34 32 36 40 44 53 61 65 67 66 63 56 48 46 51 54
5 6 6 6 6 6 7 7 8 8 9 9 10 10 11 11 12 13 13 13 12 13 13 13 14 14 14 15 15 15 16 17 18 19 20 20 21 21 20 20 20 21 20 19 19 17 16 18 18 19 21 21 19 17 20 22 14 7 9 7 9 13 18 19 20 24 31 35 36 36 33 33 36 40 41 41 48 60 63 62 63 61 53 45 42 48 53 53
4 5 5 5 6 6 6 7 8 8 9 9 10 10 11 11 12 13 13 12 12 12 13 13 14 14 14 14 15 15 16 17 17 18 19 20 21 20 19 19 18 17 16 15 15 15 15 16 17 15 15 18 19 18 21 19 6 7 8 11 11 15 20 22 22 25 31 36 37 34 31 32 37 40 42 47 59 66 63 59 58 50 40 38 45 51 53 51
Wind_Direction
90 85 81 81 87 93 97 101 106 109 109 109 109 107 105 100 102 115 122 121 118 118 120 121 119 117 116 117 117 118 120 124 124 121 115 105 97 97 100 101 99 93 81 68 54 39 31 22 15 16 16 7 357 352 343 333 325 321 319 316 312 310 311 309 308 308 309 310 312 312 312 311 307 304 302 300 300 298 297 299 296 292 292 294 297 298 300 307
90 87 82 79 81 86 92 99 106 109 109 110 109 105 100 97 100 112 120 119 119 123 124 123 121 120 120 122 124 127 132 135 134 120 106 98 96 100 103 98 92 79 67 57 44 27 14 9 7 10 6 357 351 344 337 329 322 320 322 321 317 315 315 312 311 312 312 313 313 313 311 308 305 303 300 298 297 295 297 299 292 289 291 292 295 295 299 305
86 84 84 80 78 79 87 98 106 107 107 108 105 100 97 97 101 108 115 118 121 127 128 124 121 120 122 126 129 135 140 139 129 105 97 99 102 102 98 90 80 67 58 44 30 17 4 0 359 353 345 345 339 330 330 329 326 325 325 328 326 320 316 314 314 312 312 312 311 312 309 306 305 302 299 298 295 295 299 295 286 289 291 292 294 293 297 304
88 79 79 80 77 73 77 90 104 105 103 104 101 95 94 97 105 112 120 127 132 137 134 127 123 123 127 133 139 149 151 140 116 100 108 121 118 113 103 88 72 61 50 30 20 9 355 352 345 332 329 332 323 319 324 327 328 328 328 329 326 321 317 316 314 311 310 310 311 312 309 308 305 302 302 298 296 299 298 286 285 291 290 292 294 291 296 303
92 80 73 76 77 72 71 79 94 99 96 95 94 93 90 93 106 119 132 142 145 145 139 131 128 129 134 142 148 154 150 140 116 109 133 141 146 156 114 86 66 57 40 21 12 356 342 336 330 323 323 322 316 317 323 326 328 328 327 326 323 320 317 315 313 311 311 312 314 313 311 308 304 304 302 299 302 302 287 281 287 292 292 293 292 291 296 304
92 80 71 70 73 72 71 69 74 86 91 86 84 87 85 91 107 124 140 147 147 145 141 135 134 135 141 149 152 163 190 242 205 153 144 159 204 204 123 75 60 44 26 14 360 339 327 322 320 323 322 316 315 320 324 325 327 328 325 322 320 318 316 316 315 314 315 316 316 313 310 307 305 304 301 303 306 290 279 283 291 295 295 293 290 293 297 306
106 76 66 63 63 63 59 55 57 75 88 85 75 75 85 96 115 135 147 146 145 145 143 143 142 143 149 154 162 186 224 205 178 162 137 182 219 236 306 33 28 19 10 3 344 323 315 312 313 318 320 318 318 322 325 325 325 325 321 318 318 318 318 318 318 317 317 317 314 311 308 307 307 305 303 306 296 280 282 290 295 298 296 294 293 295 297 307
223 90 58 50 45 41 30 23 38 76 85 82 73 74 94 110 135 155 161 157 159 163 162 159 152 148 146 140 152 166 134 127 143 134 134 168 186 325 2 350 344 347 344 340 328 317 310 309 314 321 325 324 323 323 326 326 322 320 317 317 318 319 319 318 318 317 317 317 314 311 309 310 311 309 309 305 291 287 292 296 298 299 298 297 297 296 296 307
246 231 60 35 33 27 12 5 37 90 84 81 77 134 127 134 159 173 180 184 195 193 176 162 152 147 145 139 152 160 141 133 135 128 122 62 43 23 6 335 326 334 333 327 321 316 312 313 319 325 327 325 324 325 327 324 319 319 318 317 319 319 317 316 316 316 316 316 315 314 312 313 316 315 313 305 298 298 296 298 302 300 299 299 298 296 294 307
246 231 224 3 13 348 352 356 41 86 85 90 152 226 181 163 178 186 195 208 208 191 173 160 159 157 157 160 170 175 165 154 150 135 95 49 17 8 357 334 340 342 333 325 321 319 318 320 321 325 327 324 324 325 325 321 318 320 320 318 319 319 318 316 316 315 315 316 317 318 314 317 322 320 317 310 303 300 296 302 305 300 299 301 299 295 292 307
232 217 212 256 323 315 323 332 16 81 92 120 216 225 201 183 192 198 208 214 199 190 184 172 171 168 170 186 198 198 182 169 160 128 87 44 11 1 349 347 351 342 331 326 328 328 323 323 324 328 328 323 324 325 323 319 318 321 320 319 319 320 318 316 315 314 315 317 318 320 316 319 329 327 321 313 301 296 297 303 304 300 299 300 299 292 293 308
201 190 200 252 307 304 310 327 5 84 121 174 225 222 203 197 204 209 217 213 202 203 201 185 179 179 189 204 203 201 191 182 167 129 43 21 7 345 348 352 345 335 332 330 331 330 325 326 328 330 327 320 323 323 320 318 320 322 321 320 320 321 319 315 315 313 315 317 319 323 320 322 335 331 323 314 301 297 297 301 303 300 298 299 295 290 297 309
172 180 199 278 314 309 319 330 351 120 172 199 236 228 207 206 207 211 215 213 212 215 208 199 201 199 203 207 202 203 197 188 179 115 351 357 348 341 343 341 338 335 333 331 329 328 328 329 328 329 325 319 319 320 318 319 321 323 323 322 321 322 320 318 317 314 316 318 321 327 322 323 333 330 325 318 302 296 295 298 301 299 297 296 293 295 303 309
182 187 202 311 329 328 321 312 316 234 206 216 237 240 223 213 208 209 212 213 217 219 214 216 219 208 206 209 206 208 204 190 186 335 330 327 330 340 339 333 336 336 333 331 328 328 331 331 328 327 323 318 319 320 320 320 323 326 326 323 324 324 321 322 320 316 318 318 321 326 318 320 330 330 328 318 299 293 295 297 299 297 294 294 297 302 307 309
179 189 227 314 320 321 308 295 292 267 235 232 239 245 238 225 216 214 216 216 221 224 221 222 218 207 208 212 212 219 224 205 353 345 336 331 325 331 334 334 337 334 333 332 328 331 332 329 327 325 321 320 322 323 323 323 325 329 328 325 326 326 323 326 323 317 318 318 320 322 315 319 331 332 325 311 295 293 299 302 299 290 289 298 305 307 308 310
171 194 258 302 313 315 300 291 286 263 251 249 246 245 241 237 227 222 223 222 226 226 216 212 207 205 210 213 217 232 253 288 332 338 336 335 332 328 327 332 336 333 331 332 329 331 331 328 326 324 323 324 326 327 326 326 327 329 328 326 327 327 327 329 323 319 320 319 319 318 314 319 330 332 318 300 293 297 304 304 289 279 293 309 311 311 311 317
167 200 286 316 345 327 297 285 279 261 260 258 252 249 245 243 236 229 229 229 230 222 212 213 209 207 215 217 225 241 274 320 334 337 331 329 330 329 323 325 332 330 328 331 330 329 330 328 324 323 324 325 329 331 330 325 325 327 325 326 328 327 329 329 322 320 321 319 319 318 316 319 329 331 311 296 298 301 305 293 266 275 317 320 318 318 320 329
179 218 290 328 348 319 286 273 270 263 267 267 263 259 250 245 242 236 235 235 230 221 223 232 224 222 230 228 230 244 273 305 318 326 328 325 324 326 323 321 324 324 326 327 326 328 328 326 321 320 323 326 330 332 326 314 315 320 320 324 327 327 328 328 323 322 322 320 320 319 318 320 329 330 307 299 303 305 307 287 244 297 332 328 330 331 334 341
198 221 270 305 311 295 284 280 274 269 269 271 271 265 254 247 244 241 239 236 229 226 231 233 230 233 243 243 243 253 273 295 307 313 319 318 317 319 320 319 317 318 321 322 322 322 323 325 322 317 322 325 326 327 320 310 311 314 316 319 323 325 327 325 323 323 323 321 320 321 320 321 329 328 307 299 305 307 307 266 216 304 332 337 340 339 342 347
226 241 269 294 299 286 287 280 272 273 268 272 276 268 256 246 244 243 240 235 231 233 234 235 239 238 247 259 256 259 276 290 297 302 306 308 310 312 314 316 314 313 315 316 318 318 319 323 320 314 318 322 321 321 319 312 310 312 314 315 318 323 325 325 326 326 325 322 320 321 320 321 327 323 307 300 310 308 285 224 234 306 334 338 339 341 345 351
241 258 276 295 296 283 277 262 256 266 271 276 278 271 261 251 247 245 242 238 236 239 241 246 251 248 255 266 264 270 280 286 291 295 298 300 304 307 308 311 312 310 310 312 313 314 314 316 316 311 312 318 318 316 316 312 310 312 314 313 316 322 324 326 328 327 326 322 319 320 318 322 325 317 306 314 320 303 241 240 262 311 337 335 335 337 340 349
234 252 276 301 300 287 259 237 240 256 269 273 277 278 271 260 254 250 248 247 246 245 248 257 263 261 261 265 270 277 280 285 290 292 295 297 300 303 304 306 307 306 308 308 308 310 311 309 311 311 309 312 314 314 314 312 310 311 314 313 315 320 324 326 327 329 328 321 319 319 317 324 324 304 305 325 320 290 254 263 268 313 338 336 331 333 338 345
197 198 243 304 315 307 266 234 244 258 265 272 282 283 274 267 262 256 252 255 256 252 256 264 268 266 265 267 273 280 284 288 290 291 295 297 298 299 299 300 302 304 305 305 306 308 307 305 307 309 308 310 312 312 312 311 309 310 313 312 311 317 324 325 325 328 328 320 318 317 317 327 326 280 312 326 316 291 267 266 275 314 338 340 337 339 342 344
194 219 263 308 321 315 299 249 253 266 272 277 281 276 274 271 268 264 262 266 264 259 263 268 268 266 268 273 277 284 288 290 291 292 294 296 296 295 295 297 299 300 303 304 304 303 302 302 304 304 305 309 311 312 312 310 308 308 311 311 309 315 322 323 323 326 326 321 318 320 322 331 67 296 318 323 313 296 269 265 284 316 337 346 349 349 348 348
211 244 277 306 321 324 324 254 251 270 277 277 271 277 286 279 280 280 277 279 272 265 268 272 272 271 273 279 284 290 294 294 294 294 296 298 297 295 295 296 297 300 303 303 302 300 300 300 302 302 304 306 308 311 312 308 305 305 308 311 310 312 318 321 323 325 325 321 319 325 328 301 246 309 313 319 317 296 264 273 297 326 342 352 356 352 352 352
220 247 268 290 338 32 5 215 231 245 257 272 276 296 300 293 296 293 289 287 275 271 278 279 278 278 281 289 294 297 300 299 298 298 300 301 299 297 296 295 297 300 301 301 299 298 298 300 301 300 302 302 304 309 309 305 304 303 308 312 311 311 316 319 322 323 318 310 312 317 311 262 297 313 313 317 317 290 264 296 317 335 346 353 354 352 353 352
213 232 205 145 116 126 159 186 238 233 252 277 284 306 306 301 304 306 304 295 274 274 287 292 289 288 294 302 306 305 302 301 300 300 301 302 300 299 297 296 297 298 299 299 296 296 298 300 299 298 299 300 300 305 306 303 302 302 309 313 310 310 313 316 319 316 306 306 309 305 294 277 292 311 319 315 308 278 275 318 331 338 345 348 351 352 352 350
194 193 161 142 145 165 192 268 322 285 284 290 295 300 300 305 311 314 313 300 284 286 298 314 308 306 312 318 323 322 316 311 305 304 306 305 302 300 297 297 297 296 297 294 290 294 298 297 296 295 296 296 299 302 303 302 301 303 310 312 310 310 312 315 315 308 305 310 303 293 301 288 277 307 323 318 299 272 286 323 335 335 336 338 343 344 343 341
185 181 166 160 194 230 248 285 310 308 308 306 301 296 296 301 309 317 311 262 288 297 307 324 321 325 334 333 330 327 323 317 309 307 308 305 303 301 298 298 297 295 294 292 289 292 295 294 294 293 292 295 297 299 300 300 301 306 311 311 310 310 312 314 310 304 306 300 271 274 289 306 292 309 330 337 340 304 279 319 339 332 328 328 331 331 328 327
196 192 183 186 238 253 262 284 304 317 326 321 314 308 301 298 308 329 324 254 296 302 301 318 331 335 334 329 327 324 321 316 311 308 307 304 304 303 301 300 298 295 293 293 292 293 294 292 291 290 292 295 296 298 299 299 304 310 312 312 314 314 315 314 307 305 301 264 241 254 263 318 305 311 328 314 326 305 270 314 346 339 331 328 328 328 324 321
218 217 216 231 250 254 258 281 315 342 343 337 332 323 311 305 307 311 257 286 307 303 291 311 326 326 325 323 322 321 318 314 311 309 307 307 307 307 306 304 301 300 299 297 295 294 294 291 291 292 292 293 295 297 299 304 311 313 314 319 320 317 317 310 295 283 264 271 227 263 290 292 266 295 319 306 311 301 274 318 348 340 333 328 324 325 323 322
236 246 249 253 255 255 250 252 347 3 352 347 342 337 334 324 301 265 272 304 313 296 298 311 316 318 319 319 319 319 318 315 313 313 313 315 314 313 311 306 303 303 299 298 298 297 295 293 293 292 291 294 295 297 305 311 315 315 317 322 320 315 315 298 264 235 268 271 255 283 301 286 270 288 328 325 315 312 296 311 337 333 328 323 320 322 322 321
258 274 275 271 265 262 256 257 339 349 345 343 341 341 342 333 294 283 298 302 294 295 304 308 310 313 315 317 319 320 319 318 319 319 318 318 316 314 311 307 305 299 292 297 301 300 299 299 297 292 291 293 291 299 311 313 314 313 314 315 312 315 315 297 286 278 273 260 273 292 299 291 281 301 337 332 323 316 299 262 308 327 326 322 321 321 321 320
301 298 291 284 275 272 272 282 316 328 332 333 334 336 333 317 301 309 309 302 296 299 305 307 309 313 314 317 320 321 322 322 321 320 318 318 316 314 312 309 306 301 298 300 302 299 293 296 300 296 292 292 293 302 310 311 310 310 309 303 294 287 277 287 307 302 304 309 291 291 288 275 285 317 333 346 359 336 286 222 298 320 321 321 322 322 323 324
287 301 297 290 281 278 279 286 302 316 323 325 325 327 325 315 311 313 310 306 303 305 308 310 313 314 316 320 322 323 324 321 318 318 318 317 315 313 312 310 307 309 309 303 299 298 288 286 296 297 292 295 299 302 308 311 310 307 307 298 284 279 264 265 278 280 289 310 286 270 271 279 295 314 336 37 26 353 264 274 307 314 317 321 324 325 327 328
274 289 292 289 282 280 281 287 298 308 314 317 316 318 317 311 309 309 308 307 308 311 313 315 317 317 320 323 322 322 321 319 318 318 319 320 317 314 313 311 311 312 310 302 297 298 287 282 293 298 297 298 300 301 305 308 305 300 299 291 287 293 278 263 273 276 270 283 264 241 275 292 301 319 325 305 335 334 308 309 313 314 318 323 325 327 329 330
276 289 293 290 285 282 282 286 294 300 305 307 309 311 311 307 306 306 307 308 311 314 315 318 320 319 321 320 318 320 320 319 320 319 320 321 318 314 312 311 310 309 307 303 296 291 287 289 295 300 301 300 301 302 303 305 303 296 289 291 298 301 280 255 269 283 254 258 250 227 270 290 296 303 286 284 315 329 323 317 315 315 319 322 325 327 328 329
281 296 301 300 293 285 282 285 289 294 298 301 306 309 307 306 307 305 306 309 311 313 315 318 319 317 317 316 316 319 319 318 319 320 321 320 315 313 314 312 310 309 308 307 300 296 296 297 300 302 301 301 302 303 304 306 305 297 289 294 301 292 267 241 251 291 281 267 273 218 248 279 285 280 284 296 320 331 329 322 318 320 324 326 326 327 327 327
282 299 306 307 299 286 282 284 288 294 299 303 307 310 306 304 305 305 307 309 311 314 315 317 318 315 315 315 315 318 318 317 319 320 319 316 310 313 316 314 313 315 313 310 305 300 299 296 294 297 300 301 302 303 304 304 304 299 294 297 298 283 270 257 248 266 277 279 290 241 232 278 284 277 291 311 327 333 331 325 324 330 332 331 329 328 328 328
277 293 300 300 297 292 290 292 297 302 304 306 308 307 304 305 307 309 310 311 313 315 316 317 318 315 315 316 316 317 317 317 320 319 313 310 312 316 318 316 314 313 310 308 306 302 298 286 279 293 300 299 301 302 301 299 297 294 292 296 298 288 277 272 265 260 261 275 294 280 262 274 281 291 305 320 330 331 327 324 327 331 331 330 330 329 328 328
278 287 290 292 295 298 299 302 305 307 308 308 307 307 306 308 311 313 312 312 314 314 316 317 317 316 315 316 317 317 317 317 320 318 311 311 317 317 313 312 311 310 309 307 306 303 296 285 280 289 297 298 300 302 300 297 294 292 295 299 301 295 282 277 273 258 252 258 268 276 282 284 289 299 315 327 328 326 323 322 325 327 329 329 328 328 328 328
281 284 285 289 293 296 299 303 306 308 308 307 306 308 309 311 314 314 313 315 315 316 318 318 317 317 316 317 319 319 317 317 320 319 313 315 319 313 309 310 309 309 309 308 307 304 298 289 284 288 296 301 303 304 301 296 295 300 305 309 310 302 286 271 272 276 261 259 268 270 269 284 291 306 328 327 323 321 318 320 323 325 329 329 328 327 327 326
279 282 285 289 291 293 297 301 304 305 305 306 307 310 313 315 317 316 316 318 318 319 320 319 318 318 318 319 320 321 320 319 320 318 314 315 316 313 309 309 309 310 310 308 307 307 302 292 287 293 302 305 306 310 307 300 308 314 313 314 311 304 297 282 276 283 277 264 271 273 259 272 292 317 330 327 320 317 318 322 325 327 328 329 327 326 326 325
278 285 290 293 294 296 298 300 302 303 305 308 311 315 317 318 317 317 319 321 320 320 320 320 320 319 320 320 320 322 324 320 315 315 315 314 315 313 311 310 311 311 310 308 306 305 299 290 289 298 308 310 313 324 318 312 315 316 315 315 312 308 306 294 284 283 275 264 266 267 268 278 301 321 330 329 321 318 320 324 327 329 328 327 326 326 326 326
285 292 296 297 299 301 302 303 304 307 312 314 316 319 319 317 317 319 321 321 320 320 322 322 321 320 321 321 322 323 323 316 310 312 316 315 314 314 313 313 312 311 309 307 304 301 294 289 289 289 292 295 305 310 307 308 309 310 312 314 313 311 306 300 294 279 267 275 261 257 279 296 312 327 334 329 319 318 321 325 328 329 327 326 326 326 327 328
295 299 300 302 304 304 304 306 308 311 315 315 318 320 319 319 321 322 323 324 324 325 326 325 324 324 324 324 323 323 322 317 311 312 316 317 315 315 315 314 314 312 310 306 304 300 294 294 295 289 282 284 294 299 299 300 301 304 311 313 309 306 304 307 299 275 284 294 275 277 300 308 320 333 332 320 318 320 323 327 329 327 325 326 328 329 330 331
299 300 301 305 307 305 305 308 310 313 316 318 322 324 323 324 325 326 327 329 330 330 329 329 329 328 327 325 323 322 321 319 315 315 319 318 317 317 316 316 315 312 310 308 305 301 296 298 302 299 296 297 300 301 302 302 301 306 312 308 302 308 322 331 319 310 317 301 284 304 314 309 319 331 325 317 321 322 325 327 326 324 325 327 329 331 331 330
300 301 303 306 307 303 304 309 313 317 320 323 325 327 328 328 330 331 332 333 334 332 331 332 331 328 326 323 321 322 322 321 320 320 321 319 318 318 317 318 316 312 312 310 307 306 301 300 305 307 307 308 309 310 309 306 310 318 312 302 323 354 360 349 337 335 330 306 304 322 320 309 317 325 319 318 323 324 325 324 322 322 325 328 329 330 330 327
301 304 307 308 309 306 308 314 321 324 325 327 330 332 334 335 335 336 335 334 335 333 331 331 328 325 325 322 321 325 324 322 321 322 321 319 319 319 318 318 315 313 314 311 309 310 303 301 307 311 311 314 318 320 318 316 321 312 271 236 14 6 0 350 341 339 333 324 326 330 323 318 323 322 314 317 322 322 321 318 319 323 327 328 330 329 328 327
305 311 314 314 314 314 316 323 327 329 330 334 337 338 340 339 338 337 335 333 334 333 330 330 328 327 327 325 325 327 323 320 319 319 319 318 317 318 317 315 313 312 312 310 310 310 303 301 309 313 312 317 326 328 323 321 318 288 220 237 349 350 352 350 344 339 336 334 333 329 322 320 321 313 308 313 318 319 318 318 321 325 328 330 330 327 326 327
317 323 325 323 321 322 324 329 333 335 338 340 342 342 341 341 339 337 336 335 335 334 333 333 332 332 331 328 327 326 322 320 319 317 317 316 316 316 313 310 311 310 310 311 311 312 309 306 312 317 313 315 325 328 322 321 313 238 223 270 317 338 345 344 342 341 339 337 332 327 321 317 313 307 306 309 313 317 320 322 325 328 331 332 329 326 326 328
337 336 334 330 329 331 333 337 341 343 344 344 344 344 343 343 341 340 340 341 341 340 339 339 338 336 334 330 328 325 322 321 320 317 317 315 315 315 312 309 310 309 312 316 316 318 319 314 317 319 309 309 320 324 321 321 305 195 239 277 299 327 335 334 333 335 337 334 327 319 311 306 304 305 307 309 312 317 322 326 330 334 333 327 325 326 328 329
Height
3178 3178 3178 3178 3178 3178 3178 3178 3178 3179 3179 3179 3180 3180 3180 3180 3181 3181 3181 3181 3181 3181 3181 3181 3181 3181 3182 3182 3182 3182 3183 3183 3183 3182 3182 3182 3181 3181 3181 3181 3181 3181 3180 3180 3180 3179 3179 3179 3178 3177 3177 3177 3177 3177 3176 3176 3176 3175 3175 3175 3174 3173 3172 3171 3171 3170 3169 3168 3167 3166 3165 3164 3163 3163 3162 3161 3160 3159 3158 3158 3157 3157 3156 3155 3154 3153 3152 3151
3179 3179 3179 3179 3179 3179 3179 3179 3179 3180 3180 3180 3181 3181 3181 3181 3181 3182 3182 3182 3182 3182 3182 3182 3181 3182 3183 3183 3183 3183 3183 3183 3183 3183 3182 3182 3181 3181 3181 3181 3181 3180 3180 3179 3179 3179 3179 3178 3177 3177 3177 3177 3177 3177 3176 3176 3176 3175 3174 3174 3173 3172 3171 3170 3169 3169 3168 3166 3165 3164 3164 3163 3162 3161 3160 3159 3158 3157 3157 3156 3155 3154 3154 3153 3152 3151 3151 3150
3179 3179 3180 3180 3180 3180 3180 3180 3180 3180 3181 3181 3181 3182 3181 3181 3182 3182 3183 3183 3183 3183 3183 3182 3182 3182 3183 3184 3184 3184 3184 3184 3183 3183 3182 3182 3182 3181 3181 3180 3180 3180 3179 3179 3179 3178 3178 3178 3178 3177 3177 3177 3177 3177 3176 3176 3175 3174 3174 3173 3172 3171 3170 3169 3168 3167 3166 3165 3164 3163 3162 3161 3160 3159 3158 3157 3156 3155 3155 3154 3152 3152 3152 3151 3150 3150 3149 3148
3180 3180 3180 3181 3181 3181 3181 3180 3181 3181 3181 3182 3182 3182 3182 3182 3182 3183 3184 3184 3184 3184 3184 3183 3183 3183 3183 3184 3184 3184 3184 3184 3183 3183 3182 3182 3182 3181 3181 3180 3180 3179 3179 3179 3179 3179 3178 3178 3178 3178 3177 3177 3177 3177 3176 3175 3174 3174 3173 3172 3171 3170 3169 3168 3167 3166 3165 3164 3163 3162 3161 3160 3159 3157 3156 3155 3154 3153 3153 3151 3149 3150 3150 3148 3148 3148 3147 3146
3180 3181 3181 3181 3181 3181 3181 3181 3181 3181 3182 3182 3182 3182 3182 3182 3183 3183 3184 3184 3184 3184 3184 3183 3183 3183 3184 3184 3184 3184 3184 3184 3183 3183 3183 3182 3182 3181 3181 3180 3180 3179 3179 3179 3179 3179 3179 3179 3178 3178 3178 3177 3177 3176 3175 3174 3174 3173 3172 3171 3170 3169 3168 3167 3166 3165 3164 3163 3162 3160 3159 3158 3157 3156 3154 3153 3152 3152 3150 3148 3148 3148 3147 3146 3146 3146 3145 3144
3181 3181 3182 3182 3182 3182 3182 3182 3182 3182 3182 3182 3182 3182 3182 3182 3183 3184 3184 3184 3185 3185 3185 3184 3184 3184 3184 3184 3185 3185 3184 3184 3184 3183 3183 3182 3182 3182 3181 3180 3180 3180 3179 3179 3179 3179 3179 3179 3178 3178 3177 3177 3176 3175 3174 3174 3173 3172 3171 3170 3169 3168 3167 3166 3165 3164 3163 3162 3160 3159 3158 3157 3156 3154 3153 3152 3151 3148 3146 3146 3146 3146 3145 3144 3144 3144 3143 3142
3182 3182 3182 3183 3183 3183 3182 3182 3182 3182 3182 3182 3182 3183 3183 3183 3183 3184 3185 3185 3185 3185 3185 3184 3184 3184 3184 3185 3185 3185 3185 3184 3184 3184 3183 3183 3182 3182 3181 3181 3180 3180 3179 3179 3179 3179 3179 3179 3178 3178 3177 3176 3176 3175 3174 3173 3172 3171 3170 3169 3168 3167 3166 3165 3164 3162 3161 3160 3159 3158 3156 3155 3154 3152 3151 3150 3148 3145 3144 3145 3144 3144 3143 3142 3142 3141 3141 3140
3182 3182 3183 3183 3183 3183 3183 3183 3183 3182 3182 3182 3182 3183 3183 3183 3184 3184 3185 3185 3186 3186 3185 3185 3185 3184 3185 3185 3185 3185 3185 3185 3184 3184 3183 3183 3183 3182 3181 3181 3181 3180 3180 3180 3180 3179 3179 3178 3178 3177 3176 3176 3175 3174 3173 3172 3171 3170 3169 3168 3167 3166 3165 3163 3162 3161 3160 3159 3158 3156 3154 3153 3152 3150 3149 3147 3144 3143 3142 3143 3142 3141 3141 3140 3140 3139 3139 3138
3182 3183 3183 3184 3184 3184 3183 3183 3183 3183 3182 3182 3183 3183 3183 3183 3184 3185 3185 3186 3186 3186 3186 3185 3185 3185 3185 3185 3185 3185 3185 3185 3185 3184 3184 3183 3183 3182 3182 3181 3181 3180 3180 3180 3179 3179 3178 3178 3177 3176 3176 3175 3174 3173 3172 3171 3170 3169 3168 3167 3166 3165 3163 3162 3161 3159 3158 3157 3156 3154 3152 3151 3150 3148 3146 3144 3142 3141 3141 3141 3140 3139 3138 3138 3137 3137 3137 3136
3182 3183 3183 3184 3184 3184 3184 3184 3183 3183 3183 3182 3183 3183 3183 3183 3184 3185 3186 3186 3186 3186 3186 3186 3185 3185 3185 3186 3186 3186 3185 3185 3185 3184 3184 3183 3183 3182 3182 3182 3181 3180 3180 3180 3179 3179 3178 3177 3176 3176 3175 3174 3173 3172 3171 3170 3169 3168 3167 3166 3165 3164 3162 3161 3159 3158 3157 3156 3154 3153 3150 3148 3148 3146 3144 3143 3141 3140 3139 3139 3138 3137 3136 3136 3135 3135 3135 3134
3181 3183 3183 3184 3184 3184 3184 3184 3183 3183 3183 3183 3183 3183 3183 3184 3184 3185 3186 3186 3186 3187 3186 3186 3186 3186 3186 3186 3186 3186 3186 3185 3185 3184 3184 3183 3183 3183 3182 3182 3181 3180 3180 3179 3179 3178 3177 3177 3176 3175 3174 3173 3172 3171 3170 3169 3168 3167 3166 3165 3164 3163 3161 3160 3158 3157 3156 3154 3153 3151 3148 3146 3146 3144 3143 3141 3139 3138 3137 3137 3136 3135 3134 3134 3133 3133 3133 3132
3181 3182 3183 3184 3184 3184 3184 3184 3183 3183 3183 3183 3183 3184 3184 3184 3185 3186 3186 3186 3187 3187 3187 3186 3186 3186 3186 3186 3186 3186 3186 3185 3185 3185 3184 3184 3183 3183 3182 3182 3181 3180 3180 3179 3178 3177 3177 3176 3175 3174 3173 3172 3171 3170 3170 3169 3168 3166 3165 3164 3163 3162 3160 3159 3157 3156 3154 3153 3151 3150 3146 3144 3144 3142 3141 3139 3137 3136 3135 3134 3134 3133 3132 3132 3131 3131 3131 3130
3181 3182 3183 3183 3183 3183 3183 3183 3183 3183 3183 3183 3184 3184 3184 3184 3185 3186 3186 3186 3187 3187 3186 3186 3186 3186 3186 3187 3187 3186 3186 3186 3185 3185 3184 3184 3183 3183 3182 3181 3181 3180 3179 3178 3178 3177 3176 3175 3174 3174 3173 3172 3171 3170 3169 3168 3167 3166 3164 3163 3162 3161 3159 3158 3157 3155 3153 3151 3150 3149 3145 3142 3142 3140 3138 3137 3135 3134 3133 3132 3131 3131 3130 3130 3129 3129 3129 3128
3181 3182 3182 3183 3183 3183 3183 3183 3183 3183 3183 3183 3184 3184 3184 3185 3185 3186 3186 3186 3187 3187 3186 3186 3187 3187 3187 3187 3187 3187 3186 3186 3185 3185 3184 3184 3183 3183 3182 3181 3180 3180 3179 3178 3177 3176 3175 3175 3174 3173 3172 3171 3170 3169 3168 3167 3166 3165 3163 3162 3161 3160 3158 3157 3155 3153 3152 3150 3148 3148 3144 3141 3141 3139 3136 3135 3133 3132 3131 3130 3129 3129 3128 3128 3128 3127 3127 3126
3181 3181 3182 3182 3182 3182 3182 3183 3183 3183 3183 3183 3183 3184 3184 3185 3185 3186 3186 3186 3187 3187 3187 3187 3187 3187 3187 3187 3187 3187 3186 3186 3185 3184 3184 3184 3183 3182 3182 3181 3180 3179 3178 3178 3177 3176 3175 3174 3173 3172 3172 3171 3170 3168 3167 3166 3165 3164 3163 3161 3160 3159 3157 3155 3154 3152 3150 3149 3147 3146 3143 3140 3140 3138 3135 3132 3130 3129 3129 3128 3127 3127 3126 3126 3126 3125 3124 3124
3181 3181 3181 3182 3182 3182 3182 3182 3182 3182 3182 3183 3183 3184 3184 3185 3186 3186 3186 3187 3187 3187 3187 3187 3187 3187 3187 3187 3187 3186 3186 3185 3185 3184 3184 3183 3183 3182 3182 3181 3180 3179 3178 3177 3176 3175 3174 3174 3173 3172 3171 3170 3169 3167 3166 3165 3164 3163 3162 3160 3159 3157 3156 3154 3152 3150 3149 3147 3146 3145 3141 3138 3138 3136 3133 3130 3128 3127 3127 3126 3125 3125 3125 3125 3124 3123 3122 3122
3181 3181 3181 3181 3182 3182 3182 3182 3182 3182 3182 3182 3183 3183 3184 3185 3185 3186 3186 3187 3187 3187 3187 3186 3187 3187 3187 3186 3186 3186 3186 3185 3184 3184 3184 3183 3183 3182 3182 3181 3180 3179 3178 3177 3176 3175 3174 3173 3172 3171 3170 3169 3168 3166 3165 3165 3163 3162 3160 3159 3157 3155 3154 3153 3150 3149 3148 3146 3144 3142 3139 3136 3136 3134 3130 3128 3126 3125 3125 3124 3123 3123 3123 3123 3122 3121 3120 3120
3181 3182 3181 3182 3182 3182 3182 3182 3182 3182 3182 3182 3183 3183 3184 3185 3185 3186 3186 3186 3186 3187 3186 3186 3186 3187 3186 3186 3186 3186 3185 3185 3184 3184 3183 3183 3182 3182 3181 3180 3180 3179 3178 3177 3176 3174 3173 3172 3171 3170 3169 3168 3167 3165 3165 3164 3163 3161 3160 3158 3156 3154 3153 3151 3149 3147 3146 3144 3142 3139 3136 3133 3133 3131 3128 3126 3124 3124 3123 3122 3122 3122 3122 3121 3120 3119 3118 3118
3181 3182 3182 3181 3182 3182 3182 3182 3182 3182 3182 3182 3182 3183 3184 3184 3185 3185 3186 3186 3186 3186 3186 3186 3186 3186 3186 3186 3185 3185 3185 3184 3184 3183 3183 3182 3182 3181 3181 3180 3179 3178 3177 3176 3175 3174 3173 3172 3170 3169 3168 3167 3165 3164 3164 3163 3162 3160 3159 3157 3155 3154 3152 3150 3147 3145 3143 3141 3139 3137 3133 3130 3129 3128 3126 3124 3123 3122 3121 3121 3121 3120 3120 3119 3118 3117 3117 3116
3181 3181 3181 3181 3181 3181 3182 3182 3182 3182 3182 3182 3183 3183 3183 3184 3185 3185 3185 3186 3186 3186 3186 3186 3186 3186 3186 3185 3185 3185 3184 3184 3183 3183 3183 3182 3182 3181 3180 3179 3178 3177 3176 3175 3174 3173 3172 3171 3169 3168 3167 3166 3164 3163 3162 3161 3160 3159 3157 3156 3154 3152 3151 3149 3146 3143 3141 3138 3135 3134 3132 3129 3127 3125 3124 3123 3122 3120 3120 3119 3119 3119 3118 3117 3116 3116 3115 3114
3181 3181 3181 3181 3181 3181 3182 3182 3182 3182 3183 3183 3183 3183 3183 3184 3184 3185 3185 3185 3185 3185 3185 3185 3185 3185 3185 3185 3184 3184 3184 3183 3183 3183 3182 3182 3181 3180 3179 3178 3177 3176 3175 3174 3173 3172 3171 3170 3168 3167 3166 3164 3163 3162 3161 3159 3158 3157 3156 3154 3152 3150 3149 3147 3145 3142 3139 3135 3132 3131 3129 3127 3126 3123 3121 3121 3120 3119 3119 3118 3118 3117 3116 3115 3115 3114 3113 3112
3181 3181 3181 3181 3181 3181 3182 3182 3182 3182 3183 3183 3183 3183 3184 3184 3184 3184 3185 3185 3185 3185 3185 3185 3185 3185 3184 3184 3184 3184 3183 3183 3182 3182 3181 3181 3180 3179 3178 3178 3177 3176 3174 3173 3172 3171 3170 3169 3167 3166 3165 3163 3162 3161 3159 3158 3157 3155 3154 3152 3151 3149 3146 3145 3143 3142 3139 3134 3129 3127 3125 3125 3123 3121 3120 3120 3119 3118 3117 3117 3117 3116 3115 3114 3113 3112 3111 3110
3181 3181 3181 3181 3181 3182 3182 3182 3182 3182 3183 3183 3183 3183 3184 3184 3184 3184 3184 3184 3184 3184 3184 3184 3184 3184 3183 3183 3183 3183 3182 3182 3181 3181 3181 3180 3179 3178 3177 3176 3176 3175 3174 3172 3171 3170 3169 3167 3166 3165 3163 3162 3161 3159 3158 3156 3155 3153 3152 3151 3149 3147 3145 3142 3141 3140 3138 3133 3128 3124 3122 3121 3121 3119 3119 3119 3118 3117 3116 3116 3115 3114 3114 3113 3111 3110 3109 3107
3181 3182 3182 3182 3182 3182 3182 3182 3182 3183 3183 3183 3183 3184 3183 3183 3183 3183 3184 3184 3183 3184 3184 3183 3183 3183 3183 3182 3182 3182 3181 3181 3180 3180 3179 3178 3178 3177 3176 3175 3174 3173 3172 3171 3170 3169 3167 3166 3164 3163 3162 3160 3159 3158 3156 3155 3153 3152 3151 3149 3147 3146 3144 3141 3138 3136 3135 3133 3129 3124 3120 3118 3119 3119 3118 3118 3117 3116 3115 3114 3114 3113 3112 3111 3110 3108 3106 3104
3182 3182 3182 3182 3182 3182 3182 3182 3183 3183 3183 3183 3183 3184 3183 3183 3183 3183 3183 3183 3183 3182 3182 3182 3182 3182 3182 3181 3181 3181 3180 3179 3179 3178 3178 3177 3176 3176 3175 3174 3172 3172 3171 3169 3168 3167 3165 3164 3163 3161 3160 3159 3157 3156 3154 3153 3151 3150 3149 3147 3145 3144 3142 3140 3137 3134 3132 3130 3128 3126 3122 3118 3117 3118 3117 3116 3115 3114 3114 3113 3113 3112 3110 3109 3108 3106 3104 3102
3182 3182 3182 3182 3182 3182 3182 3183 3183 3183 3183 3183 3183 3183 3183 3183 3183 3183 3182 3182 3181 3181 3181 3181 3181 3181 3181 3181 3180 3180 3179 3178 3177 3177 3176 3176 3175 3174 3173 3172 3171 3170 3169 3167 3166 3164 3163 3162 3161 3160 3158 3157 3156 3154 3153 3151 3149 3148 3147 3145 3143 3142 3140 3138 3136 3134 3131 3129 3126 3126 3126 3119 3115 3116 3116 3114 3113 3112 3112 3112 3111 3110 3108 3107 3105 3104 3102 3100
3182 3182 3182 3182 3183 3183 3183 3183 3183 3183 3183 3183 3183 3183 3183 3183 3182 3182 3182 3181 3180 3180 3181 3180 3180 3180 3180 3180 3179 3179 3178 3177 3176 3175 3175 3174 3173 3172 3171 3170 3169 3168 3167 3166 3163 3162 3161 3160 3159 3158 3156 3155 3154 3152 3151 3149 3148 3146 3145 3143 3141 3140 3138 3136 3134 3132 3130 3128 3125 3123 3124 3121 3114 3114 3114 3112 3112 3111 3111 3111 3109 3108 3107 3105 3104 3102 3100 3098
3182 3182 3182 3183 3183 3183 3183 3183 3183 3183 3183 3183 3183 3183 3183 3183 3182 3182 3182 3181 3179 3179 3180 3180 3180 3180 3179 3179 3178 3178 3177 3176 3175 3174 3173 3172 3171 3171 3169 3168 3167 3166 3165 3164 3161 3159 3159 3158 3157 3155 3154 3153 3152 3150 3149 3147 3146 3144 3143 3141 3139 3138 3136 3134 3132 3130 3128 3127 3124 3121 3122 3120 3114 3111 3112 3110 3110 3110 3110 3109 3108 3107 3106 3104 3103 3101 3099 3097
3182 3182 3182 3183 3183 3183 3183 3183 3183 3183 3183 3183 3183 3183 3183 3182 3182 3181 3181 3180 3179 3179 3179 3179 3179 3179 3178 3178 3177 3177 3176 3175 3174 3173 3172 3171 3169 3169 3167 3166 3165 3163 3162 3161 3158 3157 3156 3156 3155 3153 3152 3150 3149 3148 3147 3146 3144 3142 3141 3139 3137 3135 3133 3132 3130 3127 3127 3126 3123 3121 3121 3120 3113 3109 3110 3109 3109 3110 3109 3108 3108 3106 3105 3103 3101 3099 3097 3094
3182 3182 3182 3183 3183 3183 3183 3183 3183 3183 3183 3183 3183 3182 3182 3182 3181 3182 3181 3179 3178 3178 3178 3178 3178 3178 3177 3177 3176 3175 3174 3173 3172 3171 3170 3169 3168 3167 3165 3164 3162 3160 3159 3158 3156 3155 3154 3153 3152 3151 3150 3148 3147 3146 3145 3144 3142 3141 3139 3137 3135 3132 3130 3129 3127 3126 3126 3123 3121 3120 3120 3121 3116 3109 3109 3109 3109 3109 3108 3107 3106 3105 3104 3101 3099 3096 3094 3091
3182 3182 3182 3183 3183 3183 3183 3183 3183 3183 3183 3183 3182 3182 3182 3181 3181 3181 3180 3179 3178 3178 3177 3177 3177 3177 3176 3175 3174 3173 3172 3171 3170 3169 3168 3167 3166 3165 3163 3162 3159 3157 3156 3155 3154 3152 3152 3151 3149 3148 3147 3146 3145 3144 3143 3142 3141 3139 3138 3135 3133 3130 3127 3126 3124 3125 3124 3120 3119 3119 3119 3121 3117 3109 3108 3108 3107 3107 3106 3106 3105 3104 3102 3100 3096 3093 3090 3088
3182 3183 3183 3183 3183 3183 3183 3183 3183 3183 3183 3182 3182 3182 3181 3181 3180 3180 3179 3178 3177 3177 3177 3177 3176 3175 3174 3173 3172 3171 3170 3169 3168 3167 3165 3165 3164 3163 3162 3160 3158 3156 3153 3151 3151 3150 3149 3148 3147 3146 3145 3144 3143 3142 3142 3140 3139 3138 3136 3135 3133 3129 3127 3125 3123 3123 3121 3118 3119 3119 3119 3118 3113 3108 3107 3107 3106 3105 3105 3104 3103 3102 3100 3097 3093 3090 3087 3085
3182 3183 3183 3183 3183 3183 3183 3183 3183 3182 3182 3182 3182 3181 3180 3180 3179 3179 3178 3178 3177 3176 3176 3176 3174 3174 3173 3172 3170 3169 3168 3167 3166 3165 3164 3163 3162 3161 3160 3158 3157 3156 3152 3150 3149 3147 3146 3145 3145 3144 3143 3143 3142 3141 3140 3139 3137 3136 3135 3135 3134 3132 3130 3126 3121 3120 3119 3118 3118 3119 3119 3114 3107 3106 3106 3105 3104 3103 3102 3102 3101 3098 3095 3093 3090 3087 3084 3081
3182 3183 3183 3183 3183 3183 3183 3182 3182 3182 3182 3181 3181 3180 3180 3179 3178 3177 3178 3177 3177 3176 3175 3174 3173 3172 3171 3170 3169 3167 3166 3165 3164 3164 3162 3161 3159 3158 3157 3156 3155 3154 3152 3150 3148 3146 3144 3143 3142 3143 3142 3141 3141 3140 3139 3137 3135 3134 3133 3134 3133 3133 3133 3127 3122 3120 3118 3117 3118 3118 3116 3109 3103 3104 3104 3103 3102 3100 3100 3100 3097 3094 3091 3089 3086 3083 3080 3077
3182 3183 3183 3183 3183 3183 3182 3182 3182 3182 3181 3181 3180 3180 3179 3178 3177 3177 3177 3176 3176 3175 3174 3173 3171 3170 3169 3168 3167 3166 3165 3164 3163 3162 3160 3159 3158 3156 3155 3154 3153 3152 3151 3149 3147 3145 3143 3141 3141 3142 3141 3140 3139 3138 3138 3136 3134 3132 3131 3132 3131 3131 3131 3127 3123 3121 3120 3119 3116 3114 3110 3103 3100 3103 3102 3101 3100 3099 3098 3096 3093 3090 3087 3085 3082 3078 3076 3072
3182 3182 3182 3182 3182 3182 3182 3182 3181 3181 3181 3180 3179 3179 3178 3178 3177 3176 3176 3175 3175 3173 3172 3171 3170 3168 3167 3166 3166 3165 3164 3162 3161 3159 3158 3157 3155 3154 3153 3152 3151 3151 3150 3149 3147 3145 3143 3140 3140 3140 3139 3139 3138 3136 3136 3135 3133 3131 3130 3129 3128 3128 3128 3126 3122 3120 3120 3119 3112 3108 3105 3099 3098 3100 3100 3099 3097 3096 3096 3092 3089 3087 3084 3080 3077 3074 3071 3067
3181 3182 3181 3181 3181 3181 3181 3181 3180 3180 3180 3179 3179 3178 3177 3177 3176 3176 3175 3174 3173 3172 3171 3169 3168 3167 3166 3165 3164 3163 3162 3161 3159 3157 3156 3155 3153 3152 3152 3151 3150 3149 3149 3147 3146 3145 3143 3139 3138 3139 3137 3136 3135 3134 3133 3133 3131 3129 3128 3127 3126 3126 3125 3124 3122 3118 3117 3114 3106 3104 3103 3098 3097 3098 3097 3096 3095 3093 3091 3087 3085 3083 3080 3076 3073 3070 3067 3063
3181 3181 3180 3180 3180 3180 3180 3180 3179 3179 3179 3178 3178 3177 3176 3176 3175 3174 3174 3173 3172 3171 3170 3168 3167 3166 3165 3164 3162 3161 3161 3159 3158 3156 3154 3153 3152 3151 3150 3150 3149 3148 3147 3146 3145 3143 3142 3138 3135 3136 3135 3134 3133 3132 3130 3129 3129 3127 3126 3125 3125 3124 3123 3123 3122 3117 3114 3110 3103 3100 3100 3096 3094 3095 3094 3093 3092 3090 3087 3083 3082 3080 3077 3073 3068 3066 3063 3059
3180 3180 3179 3179 3179 3179 3179 3179 3178 3178 3178 3177 3177 3176 3175 3174 3174 3173 3172 3171 3170 3169 3168 3167 3166 3165 3163 3162 3161 3159 3159 3158 3156 3155 3154 3152 3150 3149 3149 3148 3147 3146 3146 3145 3144 3142 3141 3138 3134 3133 3133 3132 3131 3130 3128 3126 3126 3125 3124 3123 3123 3123 3121 3121 3119 3117 3114 3109 3102 3099 3097 3094 3091 3091 3092 3092 3090 3087 3083 3080 3078 3077 3074 3070 3065 3061 3058 3054
3179 3179 3178 3178 3178 3178 3178 3177 3177 3177 3177 3176 3175 3175 3174 3173 3173 3172 3171 3170 3169 3168 3166 3165 3165 3163 3162 3161 3159 3158 3157 3156 3155 3154 3152 3151 3149 3148 3147 3146 3146 3145 3144 3143 3142 3140 3139 3138 3134 3131 3131 3130 3129 3128 3126 3125 3123 3122 3122 3121 3121 3120 3119 3118 3116 3114 3113 3108 3103 3099 3095 3091 3090 3090 3090 3090 3087 3084 3080 3077 3074 3073 3070 3066 3061 3057 3053 3048
3178 3178 3178 3178 3177 3177 3176 3176 3176 3176 3175 3175 3174 3173 3173 3172 3171 3170 3169 3168 3167 3166 3165 3164 3163 3162 3160 3159 3158 3156 3155 3154 3153 3152 3150 3149 3148 3147 3146 3145 3144 3143 3142 3141 3140 3139 3137 3135 3132 3129 3128 3127 3126 3125 3124 3122 3121 3120 3120 3120 3119 3118 3118 3116 3112 3110 3111 3108 3104 3100 3093 3087 3088 3089 3088 3088 3084 3081 3077 3074 3071 3069 3066 3062 3057 3053 3048 3043
3177 3177 3177 3177 3176 3176 3175 3175 3175 3174 3174 3173 3173 3172 3171 3170 3169 3168 3167 3167 3165 3164 3164 3163 3161 3160 3159 3158 3157 3155 3153 3152 3151 3150 3149 3148 3147 3146 3145 3144 3142 3141 3140 3138 3137 3137 3135 3133 3129 3127 3126 3125 3123 3122 3121 3120 3119 3119 3119 3118 3118 3117 3116 3115 3111 3108 3108 3106 3103 3101 3094 3085 3085 3088 3087 3084 3081 3078 3075 3072 3068 3065 3061 3057 3051 3047 3044 3039
3176 3176 3176 3176 3175 3175 3175 3174 3174 3173 3173 3172 3171 3171 3170 3169 3168 3167 3166 3165 3164 3163 3162 3161 3160 3159 3158 3156 3155 3154 3152 3150 3149 3149 3148 3146 3146 3145 3143 3142 3141 3139 3138 3137 3135 3135 3133 3131 3127 3124 3122 3121 3120 3120 3119 3118 3118 3117 3117 3116 3116 3114 3113 3113 3110 3107 3106 3103 3101 3100 3091 3082 3083 3085 3085 3082 3078 3075 3072 3069 3064 3059 3055 3051 3046 3042 3038 3034
3175 3175 3175 3175 3174 3174 3174 3173 3173 3172 3172 3171 3170 3170 3169 3168 3166 3165 3165 3164 3163 3162 3161 3160 3158 3157 3156 3155 3154 3153 3152 3150 3148 3147 3146 3145 3144 3143 3142 3140 3139 3138 3136 3135 3134 3133 3132 3129 3126 3123 3120 3118 3118 3118 3117 3116 3116 3115 3114 3113 3112 3111 3110 3109 3107 3106 3103 3100 3100 3097 3086 3080 3083 3083 3081 3078 3074 3070 3068 3064 3060 3055 3049 3045 3041 3037 3033 3028
3175 3174 3174 3174 3174 3173 3173 3172 3172 3171 3170 3170 3169 3168 3167 3166 3165 3164 3164 3163 3162 3161 3159 3158 3157 3156 3155 3154 3153 3152 3151 3149 3147 3145 3145 3144 3142 3141 3140 3139 3137 3136 3135 3133 3131 3131 3129 3127 3126 3125 3122 3119 3118 3117 3117 3116 3114 3113 3112 3111 3109 3108 3107 3106 3104 3104 3101 3097 3097 3095 3085 3079 3080 3080 3077 3074 3070 3065 3062 3058 3055 3050 3046 3041 3037 3031 3026 3021
3174 3174 3174 3173 3173 3172 3172 3171 3171 3170 3169 3168 3168 3167 3166 3165 3164 3163 3162 3161 3160 3159 3158 3157 3156 3155 3154 3153 3152 3151 3149 3148 3146 3144 3143 3142 3141 3139 3138 3137 3135 3134 3132 3131 3129 3128 3126 3124 3124 3124 3122 3120 3119 3117 3116 3115 3113 3111 3110 3109 3107 3105 3104 3103 3102 3101 3099 3095 3093 3092 3086 3077 3074 3075 3074 3070 3065 3061 3056 3053 3049 3045 3041 3037 3032 3026 3021 3016
3174 3173 3173 3173 3172 3171 3171 3170 3169 3168 3168 3167 3166 3166 3165 3164 3163 3162 3161 3160 3159 3158 3157 3156 3155 3154 3153 3151 3150 3149 3148 3147 3145 3143 3142 3141 3139 3137 3136 3135 3133 3131 3130 3129 3127 3126 3124 3122 3121 3121 3119 3117 3117 3115 3114 3112 3111 3110 3108 3106 3105 3103 3102 3101 3100 3098 3097 3094 3088 3086 3085 3078 3071 3070 3070 3066 3061 3056 3052 3048 3044 3040 3036 3031 3025 3021 3016 3012
3173 3173 3172 3172 3171 3170 3170 3169 3168 3168 3167 3166 3165 3165 3164 3163 3162 3161 3160 3159 3158 3157 3156 3155 3154 3153 3151 3150 3149 3148 3146 3145 3143 3141 3140 3139 3137 3136 3134 3133 3131 3129 3128 3127 3125 3125 3123 3120 3118 3117 3115 3114 3114 3113 3111 3109 3108 3107 3106 3104 3102 3101 3100 3099 3098 3096 3095 3092 3086 3081 3081 3077 3071 3068 3065 3062 3058 3053 3048 3044 3041 3036 3031 3025 3020 3016 3012 3007
3172 3172 3171 3171 3170 3169 3169 3168 3167 3167 3166 3165 3164 3164 3163 3162 3161 3160 3159 3158 3157 3156 3155 3154 3153 3152 3150 3149 3148 3146 3145 3143 3141 3140 3138 3137 3135 3134 3132 3130 3129 3127 3126 3125 3123 3123 3121 3118 3116 3115 3113 3112 3111 3110 3108 3107 3107 3105 3103 3101 3100 3099 3098 3097 3096 3094 3091 3088 3084 3078 3074 3071 3069 3065 3061 3058 3055 3051 3046 3042 3038 3032 3026 3021 3016 3011 3007 3002
3171 3171 3170 3170 3169 3169 3168 3167 3167 3166 3165 3164 3164 3163 3162 3161 3161 3160 3159 3158 3156 3155 3154 3153 3152 3151 3149 3148 3147 3145 3144 3142 3140 3138 3137 3135 3133 3132 3130 3128 3127 3125 3124 3122 3121 3120 3119 3116 3115 3114 3111 3109 3109 3107 3106 3105 3104 3102 3100 3099 3098 3096 3096 3095 3093 3091 3087 3083 3080 3076 3070 3066 3065 3062 3057 3054 3052 3047 3043 3038 3032 3027 3022 3017 3012 3007 3002 2997
3170 3170 3170 3169 3169 3168 3167 3167 3166 3165 3164 3164 3163 3162 3162 3161 3160 3159 3158 3157 3156 3155 3154 3152 3151 3150 3148 3147 3145 3144 3142 3141 3139 3137 3135 3133 3132 3131 3129 3127 3125 3124 3122 3120 3119 3118 3117 3115 3114 3113 3110 3108 3107 3106 3104 3102 3101 3099 3097 3096 3095 3094 3093 3092 3091 3089 3085 3079 3075 3072 3067 3063 3060 3056 3052 3050 3048 3043 3038 3033 3027 3022 3018 3014 3009 3004 2998 2993
3170 3169 3169 3169 3168 3167 3167 3166 3165 3165 3164 3163 3163 3162 3161 3160 3159 3158 3157 3156 3155 3154 3153 3151 3150 3149 3147 3146 3144 3143 3141 3139 3138 3136 3134 3132 3130 3129 3127 3125 3124 3122 3120 3119 3117 3116 3115 3114 3112 3112 3109 3106 3105 3105 3102 3100 3098 3097 3095 3093 3092 3091 3090 3089 3088 3087 3084 3078 3073 3069 3065 3061 3057 3052 3048 3044 3041 3036 3031 3027 3023 3019 3015 3011 3006 3000 2995 2991